EN

Hourly Weather Barpali

Today, 18 January, Monday

Time Temperature Precipitation Wind Pressure Humidity
00:00 +18°C° 0 mm 1 mps 746 mmHg 27%
01:00 +18°C° 0 mm 1 mps 746 mmHg 32%
02:00 +16°C° 0 mm 1 mps 745 mmHg 36%
03:00 +16°C° 0 mm 1 mps 745 mmHg 40%
04:00 +15°C° 0 mm 1 mps 745 mmHg 46%
05:00 +15°C° 0 mm 1 mps 745 mmHg 52%
06:00 +15°C° 0 mm 1 mps 745 mmHg 53%
07:00 +16°C° 0 mm 1 mps 746 mmHg 55%
08:00 +18°C° 0 mm 1 mps 746 mmHg 57%
09:00 +20°C° 0 mm 1 mps 747 mmHg 59%
10:00 +22°C° 0 mm 1 mps 747 mmHg 56%
11:00 +25°C° 0 mm 1 mps 747 mmHg 53%
12:00 +27°C° 0 mm 1 mps 747 mmHg 55%
13:00 +28°C° 0 mm 1 mps 746 mmHg 48%
14:00 +30°C° 0 mm 1 mps 745 mmHg 40%
15:00 +31°C° 0 mm 1 mps 744 mmHg 32%
16:00 +29°C° 0 mm 1 mps 744 mmHg 35%
17:00 +27°C° 0 mm 1 mps 744 mmHg 37%
18:00 +25°C° 0 mm 1 mps 744 mmHg 41%
19:00 +24°C° 0 mm 1 mps 744 mmHg 43%
20:00 +23°C° 0 mm 1 mps 744 mmHg 45%
21:00 +20°C° 0 mm 0 mps 745 mmHg 48%
22:00 +19°C° 0 mm 0 mps 745 mmHg 49%
23:00 +21°C° 0 mm 1 mps 745 mmHg 50%

Tomorrow, 19 January, Tuesday

Time Temperature Precipitation Wind Pressure Humidity
00:00 +20°C° 0 mm 1 mps 745 mmHg 52%
01:00 +17°C° 0 mm 0 mps 744 mmHg 54%
02:00 +17°C° 0 mm 0 mps 744 mmHg 56%
03:00 +16°C° 0 mm 0 mps 743 mmHg 58%
04:00 +16°C° 0 mm 0 mps 743 mmHg 60%
05:00 +15°C° 0 mm 0 mps 744 mmHg 61%
06:00 +15°C° 0 mm 0 mps 744 mmHg 63%
07:00 +19°C° 0 mm 1 mps 744 mmHg 59%
08:00 +20°C° 0 mm 1 mps 745 mmHg 54%
09:00 +21°C° 0 mm 2 mps 745 mmHg 50%
10:00 +24°C° 0 mm 2 mps 745 mmHg 44%
11:00 +27°C° 0 mm 2 mps 745 mmHg 39%
12:00 +29°C° 0 mm 2 mps 745 mmHg 33%
13:00 +30°C° 0 mm 2 mps 744 mmHg 31%
14:00 +31°C° 0 mm 2 mps 743 mmHg 28%
15:00 +32°C° 0 mm 2 mps 742 mmHg 26%
16:00 +31°C° 0 mm 1 mps 742 mmHg 29%
17:00 +29°C° 0 mm 1 mps 742 mmHg 32%
18:00 +28°C° 0 mm 1 mps 742 mmHg 35%
19:00 +27°C° 0 mm 1 mps 742 mmHg 37%
20:00 +25°C° 0 mm 1 mps 743 mmHg 39%
21:00 +24°C° 0 mm 1 mps 743 mmHg 41%
22:00 +24°C° 0 mm 1 mps 743 mmHg 42%
23:00 +23°C° 0 mm 1 mps 743 mmHg 44%

Day after tomorrow, 20 January, Wednesday

Time Temperature Precipitation Wind Pressure Humidity
00:00 +23°C° 0 mm 1 mps 743 mmHg 45%
01:00 +22°C° 0 mm 1 mps 743 mmHg 47%
02:00 +21°C° 0 mm 1 mps 743 mmHg 48%
03:00 +21°C° 0 mm 1 mps 742 mmHg 50%
04:00 +20°C° 0 mm 1 mps 742 mmHg 51%
05:00 +20°C° 0 mm 1 mps 742 mmHg 53%
06:00 +19°C° 0 mm 1 mps 743 mmHg 54%
07:00 +21°C° 0 mm 1 mps 743 mmHg 50%
08:00 +22°C° 0 mm 1 mps 744 mmHg 46%
09:00 +24°C° 0 mm 1 mps 745 mmHg 42%
10:00 +26°C° 0 mm 2 mps 744 mmHg 38%
11:00 +29°C° 0 mm 2 mps 744 mmHg 33%
12:00 +31°C° 0 mm 2 mps 744 mmHg 29%
13:00 +33°C° 0 mm 3 mps 743 mmHg 28%
14:00 +34°C° 0 mm 3 mps 743 mmHg 27%
15:00 +35°C° 0 mm 4 mps 742 mmHg 26%
16:00 +33°C° 0 mm 3 mps 742 mmHg 29%
17:00 +31°C° 0 mm 2 mps 742 mmHg 32%
18:00 +29°C° 0 mm 2 mps 742 mmHg 35%
19:00 +28°C° 0 mm 2 mps 742 mmHg 38%
20:00 +26°C° 0 mm 1 mps 743 mmHg 40%
21:00 +25°C° 0 mm 1 mps 744 mmHg 42%
22:00 +24°C° 0 mm 1 mps 744 mmHg 43%
23:00 +24°C° 0 mm 1 mps 744 mmHg 44%

21 January, Thursday

Time Temperature Precipitation Wind Pressure Humidity
00:00 +23°C° 0 mm 2 mps 744 mmHg 45%
01:00 +21°C° 0 mm 2 mps 743 mmHg 45%
02:00 +21°C° 0 mm 1 mps 743 mmHg 44%
03:00 +20°C° 0 mm 1 mps 742 mmHg 43%
04:00 +20°C° 0 mm 1 mps 743 mmHg 43%
05:00 +19°C° 0 mm 1 mps 743 mmHg 43%
06:00 +19°C° 0 mm 1 mps 743 mmHg 42%
07:00 +19°C° 0 mm 2 mps 744 mmHg 39%
08:00 +21°C° 0 mm 2 mps 745 mmHg 36%
09:00 +23°C° 0 mm 2 mps 745 mmHg 33%
10:00 +25°C° 0 mm 2 mps 745 mmHg 29%
11:00 +27°C° 0 mm 2 mps 745 mmHg 25%
12:00 +30°C° 0 mm 3 mps 745 mmHg 21%
13:00 +30°C° 0 mm 3 mps 744 mmHg 20%
14:00 +31°C° 0 mm 2 mps 743 mmHg 18%
15:00 +32°C° 0 mm 2 mps 742 mmHg 17%
16:00 +30°C° 0 mm 2 mps 742 mmHg 19%
17:00 +29°C° 0 mm 2 mps 742 mmHg 21%
18:00 +27°C° 0 mm 2 mps 742 mmHg 23%
19:00 +25°C° 0 mm 2 mps 743 mmHg 24%
20:00 +24°C° 0 mm 2 mps 744 mmHg 25%
21:00 +21°C° 0 mm 2 mps 744 mmHg 25%
22:00 +21°C° 0 mm 2 mps 744 mmHg 26%
23:00 +20°C° 0 mm 2 mps 744 mmHg 26%

22 January, Friday

Time Temperature Precipitation Wind Pressure Humidity
00:00 +19°C° 0 mm 2 mps 744 mmHg 27%
01:00 +18°C° 0 mm 2 mps 744 mmHg 28%
02:00 +17°C° 0 mm 2 mps 744 mmHg 29%
03:00 +16°C° 0 mm 2 mps 743 mmHg 30%
04:00 +16°C° 0 mm 2 mps 744 mmHg 32%
05:00 +15°C° 0 mm 2 mps 744 mmHg 34%
06:00 +14°C° 0 mm 1 mps 744 mmHg 36%
07:00 +16°C° 0 mm 1 mps 745 mmHg 34%
08:00 +18°C° 0 mm 1 mps 745 mmHg 32%
09:00 +20°C° 0 mm 1 mps 746 mmHg 30%
10:00 +23°C° 0 mm 1 mps 745 mmHg 26%
11:00 +26°C° 0 mm 1 mps 745 mmHg 22%
12:00 +28°C° 0 mm 1 mps 745 mmHg 19%
13:00 +29°C° 0 mm 1 mps 744 mmHg 17%
14:00 +30°C° 0 mm 2 mps 743 mmHg 15%
15:00 +31°C° 0 mm 2 mps 742 mmHg 14%
16:00 +29°C° 0 mm 2 mps 742 mmHg 15%
17:00 +27°C° 0 mm 1 mps 742 mmHg 17%
18:00 +25°C° 0 mm 1 mps 742 mmHg 19%
19:00 +24°C° 0 mm 1 mps 743 mmHg 20%
20:00 +22°C° 0 mm 1 mps 743 mmHg 20%
21:00 +21°C° 0 mm 1 mps 744 mmHg 21%
22:00 +20°C° 0 mm 1 mps 744 mmHg 22%
23:00 +19°C° 0 mm 1 mps 744 mmHg 22%

23 January, Saturday

Time Temperature Precipitation Wind Pressure Humidity
00:00 +19°C° 0 mm 1 mps 743 mmHg 23%
01:00 +18°C° 0 mm 1 mps 743 mmHg 24%
02:00 +16°C° 0 mm 1 mps 743 mmHg 25%
03:00 +15°C° 0 mm 1 mps 743 mmHg 26%
04:00 +15°C° 0 mm 1 mps 743 mmHg 28%
05:00 +14°C° 0 mm 1 mps 743 mmHg 30%
06:00 +13°C° 0 mm 1 mps 743 mmHg 32%
07:00 +14°C° 0 mm 0 mps 744 mmHg 30%
08:00 +16°C° 0 mm 0 mps 744 mmHg 28%
09:00 +18°C° 0 mm 0 mps 745 mmHg 26%
10:00 +21°C° 0 mm 0 mps 745 mmHg 23%
11:00 +26°C° 0 mm 1 mps 745 mmHg 20%
12:00 +28°C° 0 mm 1 mps 744 mmHg 17%
13:00 +29°C° 0 mm 1 mps 744 mmHg 15%
14:00 +31°C° 0 mm 1 mps 743 mmHg 14%
15:00 +32°C° 0 mm 1 mps 742 mmHg 13%
16:00 +30°C° 0 mm 1 mps 742 mmHg 15%
17:00 +28°C° 0 mm 1 mps 742 mmHg 17%
18:00 +24°C° 0 mm 0 mps 741 mmHg 20%
19:00 +24°C° 0 mm 1 mps 742 mmHg 21%
20:00 +23°C° 0 mm 1 mps 743 mmHg 22%
21:00 +21°C° 0 mm 1 mps 743 mmHg 24%
22:00 +21°C° 0 mm 1 mps 743 mmHg 25%
23:00 +18°C° 0 mm 0 mps 743 mmHg 26%
Show more

We Need Your Consent

Meteoprog and our Service Providers may store and access personal data such as cookies, device identifiers or other similar technologies on your device and process such data to personalise content and ads, as well as provide social media features and to analyse the traffic.

  • Store and/or access information on your device

    Cookies, device identifiers or other information can be stored or accessed on your device for the purposes indicated above.

  • Personalised ads and content, ad and content measurement, audience insights, and products development

    Ads and content can be personalised based on a profile. More data can be added to better personalise ads and content. Ad and content performance can be measured. Insights about the audience who saw the ads and content can be derived. Such data can be used to develop or improve user’s experience, systems and software.

By clicking ‘I Agree’ you will allow the use of indicated cookies, device identifiers, web beacons or other similar technologies. Your settings can be changed in the browser on your device.

For certain purposes, legitimate interests may be relied on, rather than consent. You can read more about this in our Privacy and Cookie Policy.